Location: ČR
(50.0000°N, 15.0000°E)
Time: 14:35:27
(UTC+00:00)

Explorer 7 - Pass Details

Date: 23 October 2021
Orbit: 483 x 675 km, 50.3° (Epoch: 27 November)

Event Time Altitude Azimuth Distance (km) Brightness Sun altitude
Rises 19:08:56 0° 186° (S) 2,628 - -31.8°
Reaches altitude 10° 19:12:30 10° 152° (SSE) 1,792 - -32.3°
Maximum altitude 19:13:51 11° 133° (SE) 1,723 - -32.5°
Drops below altitude 10° 19:15:13 10° 113° (ESE) 1,834 - -32.7°
Sets 19:19:00 0° 80° (E) 2,794 - -33.3°
